Regional Weather Roundup
Issued by NWS

Home | Current Version | Previous Version | Graphics & Text | Print | Product List | Glossary On
Versions: 1 2 3 4 5 6 7 8 9 10 11 12 13 14 15 16 17 18 19 20 21 22 23 24 25 26 27 28 29 30 31 32 33 34 35 36 37 38 39 40 41 42 43 44 45 46 47 48 49 50
000
ASUS45 KBOI 210310
RWRID
WEATHER ROUNDUP FOR IDAHO
NATIONAL WEATHER SERVICE BOISE ID
900 PM MDT MON OCT 20 2014

NOTE: "FAIR" INDICATES FEW OR NO CLOUDS BELOW 12000 FEET
WITH NO SIGNIFICANT WEATHER AND/OR OBSTRUCTIONS TO VISIBILITY

IDZ012-014-210400-
SOUTHWEST IDAHO


CITY           SKY/WX    TMP DP  RH WIND       PRES   REMARKS
BOISE          MOCLDY    63  40  42 S3        29.70F
CALDWELL       MOCLDY    59  39  47 E6        29.71F
MOUNTAIN HOME  CLOUDY    67  40  37 N13       29.69F
$$

IDZ016-017-210400-
SOUTHCENTRAL IDAHO


CITY           SKY/WX    TMP DP  RH WIND       PRES   REMARKS
BURLEY         PTCLDY    66  35  31 S14       29.81F
JEROME         PTCLDY    63  35  35 E13       29.78F
TWIN FALLS     PTCLDY    67  33  28 S16       29.78F
$$

IDZ019>023-210400-
SOUTHEAST IDAHO


CITY           SKY/WX    TMP DP  RH WIND       PRES   REMARKS
IDAHO FALLS    CLEAR     57  37  47 SE8       29.91S
POCATELLO      CLEAR     66  35  31 S16G23    29.87F
REXBURG        CLEAR     60  34  37 S8        29.91F
$$

IDZ006-010-011-018-031-032-210400-
CENTRAL IDAHO MOUNTAINS


CITY           SKY/WX    TMP DP  RH WIND       PRES   REMARKS
MCCALL         MOCLDY    53  30  41 NE3       29.80F
HAILEY         PTCLDY    57  37  47 CALM      29.89S
STANLEY          N/A     50  37  61 CALM      29.91F
SALMON         PTCLDY    52  36  54 CALM      29.77R
CHALLIS        MOCLDY    58  32  37 SW7       29.83F
$$

IDZ002-004-006-007-026-210400-
NORTHERN IDAHO


CITY           SKY/WX    TMP DP  RH WIND       PRES   REMARKS
LEWISTON       MOCLDY    63  47  55 NW24G33   29.75R HAZE
LOWELL           N/A     54  51  90 CALM      29.72R
COEUR D`ALENE  MOCLDY    54  43  66 SW5       29.73S
MULLAN PASS    PTCLDY    47  34  60 NW6       29.83F
$$


USA.gov is the U.S. government's official web portal to all federal, state and local government web resources and services.